Content
SEND FEEDBACK

Daily
Averages
Monthly
Summary
United States of America

ALPINE MEADOWS, CALIFORNIA


Home > North America > United States > California
Elevation: 6230 feet     Latitude: 39 12N     Longitude: 120 14W

WEATHER
 
SELECT A DAY
Number of Records: 289,062;   Date Range: 1/1/95 - 11/22/14
 
SHARE

PRINT THIS DATA

[ ← Previous Day ]
WEATHER ALMANAC - SEPTEMBER 24, 2013
[ Next Day → ]
[ °C ]   °F
Weather ElementAverageHighLow
Temperature49.5 °F62.6 °F (11:45 am)32 °F (2:55 am)
Dewpoint28.7 °F33.8 °F (11:45 am)23 °F (12:55 am)
Humidity46.4 %75 % (2:55 am)26 % (1:50 pm)
Barometer30.02 in30.14 in (12:55 am)29.91 in (9:35 pm)
Wind Speed12.8 mph28.8 mph (12:45 pm)
Wind Gust39.1 mph (12:45 pm)
Weather ElementAverage
Visibility10 mi
Wind DirectionSSW (187.4 °)

Weather ElementTotal
Precipitation---
Heating Degree Days17.7 (Base 65)
Averaged from 47 records on September 24, 2013
WEATHER CONDITIONS BREAKOUT
WIND DIRECTION BREAKOUT
WEATHER BY HOUR - SEPTEMBER 24, 2013
[ °C ]   °F
Local TimeTemperatureDewpointHumidityBarometerVisibilityWind DirectionWind SpeedGust SpeedPrecipitationEventsConditions
12:55 AM37.4 °F23.0 °F56 %30.14 in10.0 miCalmClear
1:15 AM39.2 °F24.8 °F56 %30.14 in10.0 miCalmClear
1:35 AM37.4 °F23.0 °F56 %30.14 in10.0 miSE (130°)3.5 mphClear
1:55 AM35.6 °F23.0 °F60 %30.13 in10.0 miCalmClear
2:35 AM35.6 °F24.8 °F65 %30.12 in10.0 miCalmClear
2:55 AM32.0 °F24.8 °F75 %30.11 in10.0 miCalmClear
3:15 AM35.6 °F26.6 °F70 %30.10 in10.0 miCalmClear
3:35 AM41.0 °F26.6 °F57 %30.09 in10.0 miSW (220°)5.8 mphClear
3:55 AM48.2 °F26.6 °F43 %30.09 in10.0 miSW (230°)5.8 mphClear
4:15 AM48.2 °F28.4 °F46 %30.08 in10.0 miSouth (190°)8.1 mphClear
4:35 AM51.8 °F30.2 °F44 %30.07 in10.0 miSouth (180°)8.1 mph20.7 mphClear
4:55 AM53.6 °F28.4 °F38 %30.07 in10.0 miSouth (190°)12.7 mphClear
5:15 AM53.6 °F28.4 °F38 %30.06 in10.0 miSSW (200°)9.2 mph20.7 mphClear
5:35 AM53.6 °F26.6 °F35 %30.06 in10.0 miSouth (190°)10.4 mph19.6 mphClear
5:55 AM53.6 °F26.6 °F35 %30.06 in10.0 miSW (220°)9.2 mph17.3 mphClear
6:15 AM50.0 °F26.6 °F40 %30.06 in10.0 miSouth (180°)6.9 mphClear
6:35 AM48.2 °F26.6 °F43 %30.06 in10.0 miCalmClear
6:55 AM50.0 °F24.8 °F37 %30.07 in10.0 miWSW (240°)3.5 mph16.1 mphScattered Clouds
7:50 AM55.4 °F24.8 °F31 %30.07 in10.0 miSSW (210°)12.7 mph20.7 mphMostly Cloudy
8:45 AM57.2 °F23.0 °F27 %30.08 in10.0 miSW (230°)12.7 mph21.9 mphMostly Cloudy
9:45 AM55.4 °F26.6 °F33 %30.07 in10.0 miSW (220°)23.0 mph26.5 mphMostly Cloudy
10:45 AM59.0 °F32.0 °F36 %30.05 in10.0 miSSW (210°)21.9 mph31.1 mphScattered Clouds
11:45 AM62.6 °F33.8 °F34 %30.05 in10.0 miWSW (240°)17.3 mph29.9 mphScattered Clouds
12:45 PM62.6 °F32.0 °F32 %30.02 in10.0 miSW (220°)28.8 mph39.1 mphScattered Clouds
1:50 PM62.6 °F26.6 °F26 %30.00 in10.0 miSW (220°)25.3 mph34.5 mphScattered Clouds
2:50 PM62.6 °F30.2 °F30 %30.00 in10.0 miWSW (250°)24.2 mph33.4 mphScattered Clouds
3:45 PM60.8 °F30.2 °F31 %29.99 in10.0 miSW (220°)16.1 mph33.4 mphScattered Clouds
4:55 PM59.0 °F30.2 °F34 %29.97 in10.0 miSW (220°)16.1 mph27.6 mphScattered Clouds
5:55 PM57.2 °F32.0 °F38 %29.96 in10.0 miSW (220°)23.0 mph28.8 mphClear
6:15 PM55.4 °F32.0 °F41 %29.97 in10.0 miSW (220°)11.5 mph20.7 mphClear
6:35 PM53.6 °F32.0 °F44 %29.97 in10.0 miWSW (240°)12.7 mph20.7 mphClear
6:55 PM51.8 °F32.0 °F47 %29.95 in10.0 miSW (230°)17.3 mph26.5 mphClear
7:15 PM50.0 °F32.0 °F50 %29.95 in10.0 miSW (230°)18.4 mph32.2 mphClear
7:35 PM50.0 °F32.0 °F50 %29.95 in10.0 miSW (230°)13.8 mph27.6 mphClear
7:55 PM50.0 °F32.0 °F50 %29.96 in10.0 miWSW (240°)17.3 mph24.2 mphClear
8:15 PM48.2 °F32.0 °F54 %29.95 in9.0 miSW (230°)19.6 mph26.5 mphClear
8:35 PM48.2 °F32.0 °F54 %29.94 in10.0 miSW (230°)20.7 mph29.9 mphClear
8:55 PM48.2 °F32.0 °F54 %29.94 in10.0 miWSW (240°)18.4 mph34.5 mphClear
9:15 PM46.4 °F32.0 °F57 %29.93 in10.0 miSW (230°)18.4 mph24.2 mphClear
9:35 PM46.4 °F30.2 °F53 %29.91 in10.0 miSW (230°)18.4 mph27.6 mphClear
9:55 PM46.4 °F30.2 °F53 %29.92 in10.0 miWSW (240°)17.3 mph27.6 mphClear
10:15 PM46.4 °F28.4 °F50 %29.92 in10.0 miSW (230°)18.4 mph28.8 mphClear
10:35 PM46.4 °F28.4 °F50 %29.91 in10.0 miSW (220°)17.3 mph27.6 mphClear
10:55 PM44.6 °F30.2 °F57 %29.91 in10.0 miWSW (240°)15.0 mph23.0 mphClear
11:15 PM44.6 °F30.2 °F57 %29.92 in10.0 miSW (230°)16.1 mph27.6 mphClear
11:35 PM44.6 °F30.2 °F57 %29.91 in10.0 miSW (220°)16.1 mph21.9 mphClear
11:55 PM44.6 °F30.2 °F57 %29.92 in10.0 miWSW (250°)11.5 mph23.0 mphClear
Hourly data recorded from KTRK, located miles away from Alpine Meadows, California







STORIES FROM OUR PARTNERS